Location: Forst
(46.9333°N, 15.4333°E)
Time: 21:38:07
(UTC+00:00)

Tiangong - Pass Details

Date: 26 September 2021
Orbit: 382 x 385 km, 41.5° (Epoch: 15 October)

Event Time Altitude Azimuth Distance (km) Brightness Sun altitude
Exits shadow 03:57:40 - 207° (SSW) 1,940 4.3 -9.8°
Reaches altitude 10° 03:59:42 10° 184° (S) 1,394 3.8 -9.5°
Maximum altitude 04:01:11 13° 155° (SSE) 1,245 3.9 -9.2°
Drops below altitude 10° 04:02:39 10° 127° (SE) 1,396 4.6 -9.0°
Sets 04:05:35 0° 97° (E) 2,251 6.8 -8.5°
